Погода в Бохиконе

Бенин     7°10′30″N   2°03′55″E
темп.,
°C
ветер,
м/с
пор.,
м/с
влажн.,
%
обл.,
%
осадки,
мм/ч
давл.,
гПа
погр.,
м
20 мая, пт
пт2001:00+25ююз278924 0.0 1012377
04:00+24ю139524 0.0 1011148
07:00+24ююв149570 0.0 1012171
10:00+30ю226540 0.0 10131033
13:00+32ю335382 0.6 10121610
16:00+30ююз556380 0.3 1010760
19:00+27ю487953 1.6 1011391
22:00+26ююз388476 0.1 1013452
21 мая, сб
сб2101:00+25ююз3987100 0.1 1013504
04:00+23сз2396100 18.3 1012140
07:00+23юз2795100 24.1 1013358
10:00+24зюз4789100 0.0 1015570
13:00+26зюз4781100 0.0 1014703
16:00+27юз3474100 0.0 1012730
19:00+25ю248498 0.0 1012127
22:00+23ююз3790100 0.0 1015382
22 мая, вс
вс2201:00+23зюз399189 0.0 1015488
04:00+23зюз3791100 0.0 1013378
07:00+23зюз279166 0.0 1014348
10:00+26зюз357884 0.0 1015634
13:00+29зюз346483 0.0 1013995
16:00+28ююз557337 3.0 1011942
19:00+24юз498599 3.1 1012492
22:00+23юз3887100 0.0 1014347
23 мая, пн
пн2301:00+23ююз3888100 0.0 1014402
04:00+23юз269085 0.0 1012236
07:00+23ссз009095 0.0 101333
10:00+29зсз226254 0.0 1014832
13:00+33ссз224875 0.1 10121799
16:00+31с225470 0.1 10091146
19:00+28ююв126998 0.6 101037
22:00+26ююз388199 0.3 1012323
24 мая, вт
вт2401:00+25ююз278377 0.4 1013343
04:00+24зюз238873 0.1 101273
07:00+23юз249094 0.4 1013168
10:00+28ююз236795 0.4 1014705
13:00+29юв3364100 3.5 10131023
16:00+28ююв3467100 0.1 1011758
19:00+26ююв258099 0.8 1012154
22:00+24ю388792 0.1 1013391